[[{"header":{"parameterUnit":"m.s-1","parameterCategory":1,"la1":30.2991,"la2":30.254,"lo1":-89.0895,"lo2":-89.0444,"dy":0.0017,"dx":0.0017,"nx":28,"ny":28,"refTime":"2024-04-08T21:00:00:Z","depth":0,"parameterNumber":2,"parameterNumberName":"U-component_of_WINDS"},"data":[0,0,0,0,0,0,0,0,0,0,0,0,0,0,0,0,0,0,0,0,0,0,0,0,0,0,0,0,0,0,0,0,0,0,0,0,0,0,0,0,0,0,0,0,0,0,0,0,0,0,0,0,0,0,0,0,0,0,-4.6166,-4.6168,0,-4.6294,-4.6295,-4.6297,-4.6309,-4.6308,-4.6307,-4.6305,-4.6436,-4.644,-4.6445,0,0,0,0,0,0,0,0,0,0,0,0,0,-4.5933,-4.5938,-4.6166,-4.6168,-4.6169,-4.6294,-4.6295,-4.6297,-4.631,-4.6308,-4.6306,-4.6305,-4.6434,-4.644,-4.6445,0,0,0,0,0,0,0,0,0,0,0,0,0,-4.6045,-4.5939,-4.6166,-4.6191,-4.6194,-4.6293,-4.6295,-4.6298,-4.631,-4.6308,-4.6306,-4.6304,-4.6432,-4.6439,-4.6446,-4.6529,0,0,-4.6468,-4.6471,0,0,0,0,0,0,0,0,-4.6039,-4.6054,-4.6185,-4.6189,-4.6193,-4.6284,-4.6261,-4.6375,-4.631,-4.6266,-4.6305,-4.6303,-4.6387,-4.6397,-4.6426,-4.6535,-4.6541,-4.6468,-4.6473,-4.6476,-4.6478,0,0,0,0,0,0,0,-4.6031,-4.6048,-4.6217,-4.6187,-4.6192,-4.6195,-4.6209,-4.6283,-4.6336,-4.627,-4.6271,-4.6286,-4.6388,-4.6419,-4.6429,-4.6543,-4.6468,-4.6474,-4.6479,-4.6481,-4.6727,-4.673,0,0,0,0,0,0,-4.6019,-4.6042,-4.6213,-4.622,-4.6109,-4.6201,-4.6216,-4.6257,-4.6335,-4.6345,-4.6287,-4.6286,-4.6408,-4.6421,-4.6433,-4.6535,-4.6475,-4.6482,-4.6486,-4.6725,-4.6728,-4.673,0,0,0,0,0,0,-4.6014,-4.6034,-4.6207,-4.6132,-4.6154,-4.6207,-4.6252,-4.626,-4.629,-4.6349,-4.6358,-4.6309,-4.6407,-4.6423,-4.6505,-4.654,-4.6485,-4.6492,-4.6722,-4.6726,-4.6729,-4.6739,0,0,0,0,0,0,-4.6007,-4.6032,-4.6064,-4.6132,-4.6158,-4.6277,-4.6254,-4.6264,-4.6303,-4.6302,-4.6371,-4.638,-4.6406,-4.6495,-4.6512,-4.6548,-4.6497,-4.6719,-4.6724,-4.6728,-4.6736,-4.6743,-4.6749,0,0,0,0,0,-4.5998,-4.6062,-4.6065,-4.6086,-4.6199,-4.6279,-4.6294,-4.6322,-4.6305,-4.6338,-4.6375,-4.6378,-4.6534,-4.6503,-4.6523,-4.6562,-4.6717,-4.6723,-4.6728,-4.6733,-4.6742,-4.6748,0,0,0,0,0,0,-4.5995,-4.6071,-4.6076,-4.6163,-4.6215,-4.6281,-4.6323,-4.633,-4.6387,-4.6384,-4.6418,-4.6433,-4.6513,-4.6546,-4.6511,-4.6647,-4.6624,-4.6633,-4.6621,-4.663,-4.6636,-4.6625,-4.6503,0,0,0,0,0,-4.6005,-4.6064,-4.6127,-4.6197,-4.6223,-4.6269,-4.6305,-4.6322,-4.6377,-4.6399,-4.6442,-4.6495,-4.6556,-4.6595,-4.6654,-4.6742,-4.6757,-4.6779,-4.6785,-4.679,-4.6797,-4.6845,-4.6855,-4.6747,-4.6747,-4.6747,0,0,-4.6025,-4.6074,-4.6108,-4.6198,-4.624,-4.63,-4.6287,-4.6351,-4.6395,-4.6409,-4.6488,-4.6522,-4.6583,-4.6668,-4.6708,-4.6698,-4.683,-4.6796,-4.68,-4.6804,-4.6851,-4.6861,-4.687,-4.6751,-4.675,-4.675,0,0,-4.6091,-4.6135,-4.6198,-4.6241,-4.6305,-4.6335,-4.635,-4.6416,-4.6439,-4.652,-4.6531,-4.6585,-4.6689,-4.6732,-4.6768,-4.6853,-4.6857,-4.6871,-4.6902,-4.6949,-4.6957,-4.6965,-4.6993,-4.7003,-4.6878,-4.6879,-4.6879,0,-4.6108,-4.6198,-4.6229,-4.6293,-4.6332,-4.6348,-4.6412,-4.6452,-4.6532,-4.6559,-4.6547,-4.6678,-4.6721,-4.6816,-4.6836,-4.6865,-4.6883,-4.6862,-4.6954,-4.6961,-4.6969,-4.6997,-4.7008,-4.688,-4.688,-4.6879,-4.6879,0,-4.6215,-4.6278,-4.6321,-4.6398,-4.6442,-4.6506,-4.6547,-4.6588,-4.6603,-4.6634,-4.6716,-4.6768,-4.6838,-4.6863,-4.6878,-4.696,-4.6952,-4.6947,-4.6924,-4.698,-4.7006,-4.7017,-4.6881,-4.6881,-4.6881,-4.688,0,0,-4.628,-4.6375,-4.639,-4.6425,-4.6498,-4.6547,-4.6612,-4.668,-4.6714,-4.677,-4.6824,-4.6913,-4.6909,-4.6949,-4.697,-4.7011,-4.7073,-4.7001,-4.7003,-4.7011,-4.7166,-4.7167,-4.7179,-4.7078,-4.708,-4.7082,-4.716,0,-4.6353,-4.6468,-4.6499,-4.6597,-4.6655,-4.6672,-4.6728,-4.6779,-4.681,-4.6864,-4.69,-4.6961,-4.6952,-4.6977,-4.7019,-4.7057,-4.7104,-4.7052,-4.7128,-4.713,-4.7109,-4.7193,-4.7195,-4.7266,-4.7171,-4.7173,-4.7174,0,-4.6453,-4.6511,-4.6614,-4.6679,-4.6705,-4.6755,-4.682,-4.6872,-4.693,-4.695,-4.6996,-4.7013,-4.7081,-4.7058,-4.7152,-4.7115,-4.7149,-4.7172,-4.7176,-4.7182,-4.7153,-4.7199,-4.7289,-4.7299,-4.7191,-4.719,-4.7188,0,-4.6488,-4.6592,-4.6667,-4.6697,-4.6775,-4.681,-4.6844,-4.69,-4.694,-4.6997,-4.7023,-4.7088,-4.7123,-4.7173,-4.7207,-4.7187,-4.7298,-4.7278,-4.7316,-4.7315,-4.7336,-4.7334,-4.743,-4.7362,-4.7362,-4.7362,-4.7361,0,-4.6565,-4.6627,-4.6683,-4.6729,-4.6799,-4.6835,-4.6903,-4.6938,-4.6989,-4.7042,-4.7061,-4.7111,-4.7154,-4.7209,-4.7237,-4.731,-4.7326,-4.7344,-4.735,-4.7341,-4.7338,-4.7361,-4.7356,-4.7364,-4.7364,-4.7363,-4.7363,0,-4.6615,-4.6655,-4.6738,-4.6806,-4.6824,-4.6873,-4.6931,-4.6976,-4.7009,-4.7076,-4.7094,-4.7146,-4.7212,-4.7252,-4.7336,-4.7354,-4.7435,-4.744,-4.7414,-4.7417,-4.7452,-4.7447,-4.7565,-4.7581,-4.7504,-4.7504,-4.7505,0,-4.666,-4.6708,-4.6781,-4.6818,-4.6853,-4.6912,-4.6953,-4.699,-4.7031,-4.7102,-4.7138,-4.7206,-4.7262,-4.7367,-4.7412,-4.7476,-4.7482,-4.7519,-4.7491,-4.7481,-4.748,-4.7476,-4.748,-4.7522,-4.7523,-4.7523,-4.7524,0,-4.6735,-4.6753,-4.681,-4.6875,-4.6922,-4.6975,-4.7028,-4.7057,-4.7103,-4.7149,-4.7217,-4.726,-4.7346,-4.7412,-4.7481,-4.7516,-4.7528,-4.7533,-4.7545,-4.7534,-4.7517,-4.7525,-4.7424,-4.7529,-4.7528,-4.7528,-4.7528,-4.7528,-4.6783,-4.6826,-4.6884,-4.6948,-4.6991,-4.704,-4.7085,-4.7125,-4.7182,-4.7254,-4.7274,-4.7344,-4.7402,-4.7495,-4.7533,-4.7589,-4.7583,-4.7601,-4.7605,-4.7608,-4.7608,-4.751,-4.7602,-4.7602,-4.7602,-4.7602,-4.7602,0,-4.6858,-4.6896,-4.6954,-4.7027,-4.7077,-4.7084,-4.7143,-4.7184,-4.7246,-4.7299,-4.7354,-4.7432,-4.7497,-4.7548,-4.7614,-4.7649,-4.7656,-4.7665,-4.7662,-4.767,-4.761,-4.7592,-4.7659,-4.7659,-4.7659,-4.7659,-4.7659,-4.7659,-4.6902,-4.6975,-4.7,-4.7095,-4.7134,-4.7203,-4.7236,-4.7281,-4.7323,-4.7409,-4.7463,-4.7496,-4.7549,-4.762,-4.7679,-4.7693,-4.7716,-4.7724,-4.7738,-4.768,-4.7674,-4.7668,-4.7651,-4.7729,-4.7729,-4.7792,-4.7793,-4.7793]},{"header":{"parameterUnit":"m.s-1","parameterCategory":1,"la1":30.2991,"la2":30.254,"lo1":-89.0895,"lo2":-89.0444,"dy":0.0017,"dx":0.0017,"nx":28,"ny":28,"refTime":"2024-04-08T21:00:00:Z","depth":0,"parameterNumber":3,"parameterNumberName":"V-component_of_WINDS"},"data":[0,0,0,0,0,0,0,0,0,0,0,0,0,0,0,0,0,0,0,0,0,0,0,0,0,0,0,0,0,0,0,0,0,0,0,0,0,0,0,0,0,0,0,0,0,0,0,0,0,0,0,0,0,0,0,0,0,0,4.8184,4.8184,0,4.8178,4.8178,4.8178,4.8116,4.8115,4.8113,4.8112,4.8106,4.8107,4.8108,0,0,0,0,0,0,0,0,0,0,0,0,0,4.8142,4.8143,4.8184,4.8184,4.8183,4.8178,4.8178,4.8178,4.8117,4.8115,4.8113,4.8111,4.8105,4.8107,4.8108,0,0,0,0,0,0,0,0,0,0,0,0,0,4.815,4.8143,4.8184,4.8152,4.8149,4.8178,4.8178,4.8178,4.8117,4.8115,4.8112,4.811,4.8105,4.8106,4.8108,4.8166,0,0,4.8114,4.8115,0,0,0,0,0,0,0,0,4.815,4.8152,4.8157,4.8154,4.8151,4.8146,4.8161,4.8174,4.8118,4.8129,4.8112,4.8109,4.8121,4.8121,4.8125,4.8166,4.8166,4.8114,4.8115,4.8116,4.8117,0,0,0,0,0,0,0,4.8149,4.8152,4.8181,4.8157,4.8154,4.8139,4.8137,4.8163,4.8138,4.8128,4.8124,4.8124,4.8119,4.8123,4.8125,4.8166,4.8114,4.8116,4.8117,4.8118,4.8256,4.8259,0,0,0,0,0,0,4.8153,4.8152,4.8182,4.8181,4.8145,4.8141,4.814,4.815,4.8138,4.8134,4.8126,4.8121,4.8121,4.8122,4.8124,4.8193,4.8116,4.8118,4.8119,4.8254,4.8257,4.826,0,0,0,0,0,0,4.8153,4.8156,4.8182,4.8165,4.8167,4.8144,4.8156,4.8151,4.8155,4.8136,4.8131,4.8135,4.812,4.8121,4.8157,4.8191,4.8119,4.8121,4.8251,4.8255,4.8258,4.8329,0,0,0,0,0,0,4.8152,4.8157,4.8178,4.8166,4.8169,4.8215,4.8158,4.8152,4.8159,4.8153,4.8143,4.814,4.8118,4.8154,4.8159,4.8193,4.8122,4.8248,4.8252,4.8257,4.8324,4.8335,4.8345,0,0,0,0,0,4.815,4.8198,4.8179,4.8183,4.8195,4.8217,4.8218,4.8192,4.8162,4.8184,4.8172,4.814,4.8187,4.8159,4.8163,4.8198,4.8245,4.8251,4.8257,4.8319,4.8333,4.8345,0,0,0,0,0,0,4.8213,4.8195,4.8175,4.822,4.8221,4.8206,4.8233,4.8207,4.8216,4.8209,4.8177,4.8175,4.8216,4.821,4.8179,4.8255,4.8211,4.8218,4.8257,4.827,4.828,4.8281,4.8124,0,0,0,0,0,4.8233,4.8252,4.8235,4.8276,4.8278,4.8256,4.8264,4.8244,4.8243,4.8243,4.8233,4.8233,4.8248,4.8258,4.8271,4.8323,4.8321,4.8349,4.836,4.8368,4.8375,4.8403,4.8416,4.8278,4.8278,4.8278,0,0,4.8272,4.8265,4.8279,4.8289,4.8287,4.8308,4.8256,4.828,4.8295,4.8246,4.828,4.8273,4.8271,4.8315,4.8334,4.8312,4.8413,4.8376,4.8383,4.8384,4.8411,4.8424,4.8435,4.8282,4.8281,4.8281,0,0,4.8355,4.8352,4.8386,4.8386,4.8384,4.8369,4.8378,4.8368,4.8362,4.8395,4.8359,4.8377,4.8403,4.8404,4.8407,4.8494,4.8466,4.8499,4.8554,4.8582,4.8593,4.8602,4.8634,4.8646,4.8505,4.8505,4.8505,0,4.8405,4.8435,4.8407,4.8435,4.8441,4.8398,4.8434,4.8435,4.8437,4.8442,4.8417,4.845,4.8446,4.8491,4.8512,4.8516,4.8525,4.8499,4.8593,4.8603,4.8611,4.8641,4.8653,4.8509,4.8509,4.8509,4.8508,0,4.8497,4.8519,4.8547,4.8552,4.8561,4.8592,4.857,4.8582,4.8562,4.8551,4.8586,4.8579,4.8591,4.86,4.858,4.8642,4.8629,4.8599,4.8554,4.8629,4.8657,4.8668,4.8515,4.8514,4.8513,4.8512,0,0,4.8618,4.8609,4.862,4.8622,4.8618,4.8634,4.8664,4.8676,4.8688,4.8692,4.8716,4.874,4.8714,4.8718,4.8698,4.8723,4.8793,4.869,4.869,4.8711,4.8863,4.8886,4.89,4.8775,4.8777,4.8778,4.8864,0,4.87,4.875,4.8727,4.8781,4.8802,4.8763,4.8789,4.879,4.878,4.8796,4.8785,4.8803,4.8765,4.8768,4.8791,4.878,4.8824,4.8773,4.8798,4.8799,4.88,4.8914,4.8938,4.9019,4.8874,4.8876,4.8877,0,4.8801,4.881,4.8866,4.886,4.8868,4.8892,4.8902,4.8918,4.8918,4.8909,4.8915,4.889,4.892,4.8876,4.8916,4.8883,4.8891,4.8888,4.889,4.8892,4.8843,4.892,4.9044,4.9057,4.8894,4.8893,4.8892,0,4.8886,4.8912,4.8949,4.8952,4.8946,4.8964,4.8962,4.896,4.8969,4.8978,4.8984,4.8996,4.9002,4.9012,4.8991,4.8961,4.9036,4.8989,4.903,4.903,4.9047,4.9047,4.9176,4.9052,4.9052,4.9052,4.9051,0,4.8979,4.9015,4.8987,4.9011,4.905,4.9024,4.9064,4.9057,4.9057,4.9078,4.9045,4.9066,4.9036,4.9055,4.9038,4.9076,4.9078,4.9073,4.9068,4.9076,4.9077,4.9082,4.9076,4.9055,4.9054,4.9053,4.9053,0,4.908,4.9063,4.9102,4.9093,4.9092,4.9122,4.9114,4.9136,4.9124,4.9152,4.9157,4.9139,4.9159,4.9139,4.9157,4.9146,4.9197,4.9183,4.9197,4.9193,4.9235,4.9232,4.9373,4.939,4.9254,4.9256,4.9257,0,4.9141,4.9169,4.9164,4.9176,4.9177,4.9197,4.9207,4.9182,4.9194,4.9197,4.9219,4.9236,4.9248,4.9282,4.9271,4.9285,4.9272,4.9321,4.9274,4.9282,4.9274,4.9274,4.9277,4.933,4.9332,4.9333,4.9334,0,4.9252,4.9243,4.9259,4.9273,4.9285,4.9295,4.9301,4.9313,4.9288,4.9302,4.9323,4.9333,4.9352,4.937,4.9382,4.9379,4.9353,4.9349,4.9359,4.9368,4.9375,4.9373,4.9224,4.9346,4.9345,4.9344,4.9343,4.9343,4.9336,4.9359,4.936,4.938,4.9382,4.939,4.941,4.9402,4.9418,4.9433,4.9417,4.9443,4.9444,4.9456,4.9457,4.9477,4.9457,4.9471,4.9475,4.948,4.9486,4.9372,4.9479,4.9478,4.9478,4.9478,4.9478,0,4.9447,4.9446,4.9464,4.9475,4.949,4.9465,4.9471,4.9486,4.9509,4.9512,4.9526,4.955,4.9568,4.9559,4.9574,4.9592,4.958,4.9597,4.9596,4.9596,4.9503,4.9493,4.9606,4.9606,4.9606,4.9606,4.9606,4.9606,4.9506,4.9545,4.9536,4.9576,4.9574,4.96,4.9606,4.9613,4.9616,4.9645,4.966,4.9654,4.9652,4.9667,4.9683,4.968,4.9687,4.9709,4.9701,4.9615,4.9602,4.959,4.9581,4.971,4.971,4.9793,4.9793,4.9794]}]]